This demonstration page uses our WeatherBlox Daily Observations layout. Learn more.

39.08367, -84.50855

Hourly Observations for June 26, 2019

Temp ( °F °C ) Dew Point ( °F °C ) Humidity (%) Winds ( mph kmh ) Pressure ( in mb ) Visibility ( mi km ) Precip ( " mm )
12:53 am 00:53 Clear 65 18.3 64 17.8 97 97 SSE 3 6 30.03 1017 10 16.09344 0 0
1:53 am 01:53 Clear 65 18.3 64 17.8 97 97 Calm 30.06 1018 10 16.09344 0 0
2:53 am 02:53 Clear 64 17.8 64 17.8 100 100 SSW 3 6 30.06 1018 10 16.09344 0 0
3:53 am 03:53 Clear 64 17.8 63 17.2 96 96 undefined N/A 30.06 1018 10 16.09344 0 0
4:53 am 04:53 Clear 64 17.8 62 16.7 93 93 WSW 5 7 30.06 1018 10 16.09344 0 0
5:53 am 05:53 Clear 65 18.3 63 17.2 93 93 Calm 30.06 1018 10 16.09344 0 0
6:53 am 06:53 Sunny 64 17.8 62 16.7 93 93 Calm 30.09 1019 10 16.09344 0 0
7:53 am 07:53 Mostly Sunny 67 19.4 65 18.3 93 93 Calm 30.09 1019 10 16.09344 0 0
8:53 am 08:53 Sunny 75 23.9 66 18.9 74 74 Calm 30.12 1020 10 16.09344 0 0
9:53 am 09:53 Sunny 78 25.6 68 20 71 71 SW 6 9 30.12 1020 10 16.09344 0 0
10:53 am 10:53 Sunny 81 27.2 67 19.4 62 62 SW 7 11 30.09 1019 10 16.09344 0 0
11:53 am 11:53 Sunny 83 28.3 66 18.9 57 57 WSW 7 11 30.12 1020 10 16.09344 0 0
12:53 pm 12:53 Sunny 85 29.4 66 18.9 53 53 VRB 5 7 30.12 1020 10 16.09344 0 0
1:53 pm 13:53 Sunny 87 30.6 62 16.7 43 43 Calm 30.09 1019 10 16.09344 0 0
2:53 pm 14:53 Sunny 88 31.1 67 19.4 50 50 SSW 6 9 30.09 1019 10 16.09344 0 0
3:53 pm 15:53 Sunny 89 31.7 67 19.4 48 48 SW 14 22 30.09 1019 10 16.09344 0 0
4:53 pm 16:53 Sunny 87 30.6 67 19.4 51 51 SSW 10 17 30.06 1018 10 16.09344 0 0
5:53 pm 17:53 Mostly Sunny 88 31.1 68 20 52 52 SSW 12 19 30.06 1018 10 16.09344 0 0
6:53 pm 18:53 Mostly Sunny 87 30.6 67 19.4 51 51 SSW 8 13 30.06 1018 10 16.09344 0 0
7:53 pm 19:53 Sunny 84 28.9 69 20.6 61 61 S 7 11 30.06 1018 10 16.09344 0 0
8:53 pm 20:53 Sunny 78 25.6 71 21.7 79 79 Calm 30.09 1019 10 16.09344 0 0
9:53 pm 21:53 Clear 75 23.9 70 21.1 84 84 Calm 30.09 1019 10 16.09344 0.001 0.001
10:53 pm 22:53 Clear 73 22.8 69 20.6 87 87 Calm 30.12 1020 10 16.09344 0 0
11:53 pm 23:53 Clear 72 22.2 69 20.6 91 91 Calm 30.12 1020 10 16.09344 0 0

Powered by AerisWeather